Location: La Silve
(44.2414°N, 5.8889°E)
Time: 18:04:42
(UTC+00:00)

H-2A R/B - Pass Details

Date: 01 December 2020
Orbit: 733 x 836 km, 98.2° (Epoch: 23 January)

Event Time Altitude Azimuth Distance (km) Brightness Sun altitude
Exits shadow 17:35:25 28° 73° (ENE) 1,452 2.8 -16.8°
Maximum altitude 17:35:47 28° 66° (ENE) 1,442 2.8 -16.8°
Drops below altitude 10° 17:40:06 10° 8° (N) 2,328 4.3 -17.6°
Sets 17:42:39 0° 357° (N) 3,243 5.1 -18.0°
